�N����,����,�~����,�C��,���x,�C��,����,���ϕ���,�ő�u�ԕ���,�ő厞����,���˗�,�I�_���x,�n�����x,�ő啗���N��,DTYPE
"21/06/25","00:10",0.0,20.3,90.3,1007.6,328.2,1.6,2.8,342.2,0.00,18.7,23.7,"00:03:36",1
"21/06/25","00:20",0.0,20.2,90.6,1008.3,335.3,1.6,2.9,337.5,0.00,18.7,23.8,"00:19:04",1
"21/06/25","00:30",0.0,20.2,90.7,1007.8,331.4,2.2,3.1,342.9,0.00,18.7,23.5,"00:22:40",1
"21/06/25","00:40",0.0,20.2,90.8,1008.1,328.7,1.5,2.4,314.9,0.00,18.7,23.5,"00:31:44",1
"21/06/25","00:50",0.0,20.0,91.0,1008.1,322.4,1.6,2.2,321.8,0.00,18.5,23.5,"00:46:48",1
"21/06/25","01:00",0.0,19.9,91.1,1007.8,317.5,1.3,1.9,329.6,0.00,18.4,23.6,"00:53:04",1
"21/06/25","01:10",0.0,19.7,91.2,1007.8,300.3,1.1,1.7,310.2,0.00,18.3,23.7,"01:00:48",1
"21/06/25","01:20",0.0,19.7,91.5,1008.3,306.4,1.2,2.0,328.5,0.00,18.3,23.4,"01:19:04",1
"21/06/25","01:30",0.0,19.6,91.6,1008.3,316.9,1.2,1.6,334.6,0.00,18.2,23.4,"01:27:44",1
"21/06/25","01:40",0.0,19.6,91.7,1008.1,295.8,1.1,1.6,328.6,0.00,18.3,23.5,"01:30:48",1
"21/06/25","01:50",0.0,19.6,91.8,1008.1,303.2,1.2,1.4,318.0,0.00,18.3,23.5,"01:41:36",1
"21/06/25","02:00",0.0,19.7,91.9,1008.1,332.6,1.2,2.0,322.2,0.00,18.4,23.4,"01:52:24",1
"21/06/25","02:10",0.0,19.6,92.0,1008.1,312.4,1.1,1.6,331.5,0.00,18.3,23.3,"02:00:16",1
"21/06/25","02:20",0.0,19.4,92.1,1007.6,301.0,1.0,1.3,313.9,0.00,18.1,23.2,"02:18:16",1
"21/06/25","02:30",0.0,19.4,92.3,1008.1,313.5,1.2,2.2,336.3,0.00,18.2,23.4,"02:26:08",1
"21/06/25","02:40",0.0,19.4,92.4,1008.1,322.7,1.3,1.7,335.1,0.00,18.2,23.3,"02:37:04",1
"21/06/25","02:50",0.0,19.4,92.6,1007.6,325.1,1.5,2.1,336.9,0.00,18.2,23.2,"02:47:44",1
"21/06/25","03:00",0.0,19.4,92.6,1007.6,324.8,1.0,1.7,349.4,0.00,18.2,23.0,"02:50:32",1
"21/06/25","03:10",0.0,19.2,92.8,1007.4,292.9,0.8,1.4,311.4,0.00,18.0,23.2,"03:08:16",1
"21/06/25","03:20",0.0,19.3,92.8,1007.6,297.4,1.0,1.3,317.6,0.00,18.1,23.0,"03:10:48",1
"21/06/25","03:30",0.0,19.3,93.0,1007.6,322.9,1.2,1.7,318.7,0.00,18.2,23.2,"03:27:52",1
"21/06/25","03:40",0.0,19.5,93.1,1007.4,333.6,1.5,1.9,331.5,0.00,18.4,23.2,"03:39:04",1
"21/06/25","03:50",0.0,19.4,93.1,1007.6,307.4,1.1,1.8,329.9,0.00,18.3,23.0,"03:40:56",1
"21/06/25","04:00",0.0,19.4,93.2,1007.4,291.1,0.8,1.2,308.1,0.00,18.3,23.0,"03:58:56",1
"21/06/25","04:10",0.0,19.5,93.4,1007.4,321.4,1.3,1.8,331.7,0.00,18.4,22.8,"04:05:44",1
"21/06/25","04:20",0.0,19.6,93.4,1007.4,322.0,1.3,1.6,341.7,0.00,18.5,23.1,"04:11:36",1
"21/06/25","04:30",0.0,19.7,93.5,1007.4,324.5,1.5,2.1,337.4,0.00,18.7,23.0,"04:27:36",1
"21/06/25","04:40",0.0,19.8,93.5,1007.4,314.1,1.5,2.4,324.4,0.00,18.8,22.9,"04:31:28",1
"21/06/25","04:50",0.0,19.8,93.5,1007.4,317.3,1.1,1.6,320.2,0.00,18.8,22.9,"04:42:40",1
"21/06/25","05:00",0.0,19.9,93.6,1007.4,327.1,0.7,1.4,323.6,0.00,18.9,22.9,"04:50:48",1
"21/06/25","05:10",0.0,19.8,93.6,1007.8,313.0,0.2,0.8,313.5,0.00,18.8,22.8,"05:04:40",1
"21/06/25","05:20",0.0,19.9,93.8,1008.1,303.8,0.8,1.8,314.2,0.00,18.9,22.8,"05:19:20",1
"21/06/25","05:30",0.0,20.0,93.8,1007.8,320.5,1.5,1.8,318.1,0.00,19.0,22.6,"05:20:16",1
"21/06/25","05:40",0.0,20.1,93.9,1007.8,324.1,1.6,2.1,317.2,0.00,19.1,22.7,"05:33:44",1
"21/06/25","05:50",0.0,20.2,93.9,1007.8,308.4,1.0,1.3,320.2,0.00,19.2,22.8,"05:43:20",1
"21/06/25","06:00",0.0,20.2,93.9,1007.8,291.4,1.1,1.4,269.6,0.00,19.2,22.7,"05:54:16",1
"21/06/25","06:10",0.0,20.3,94.0,1008.1,309.8,1.3,2.1,319.9,0.01,19.3,22.7,"06:08:48",1
"21/06/25","06:20",0.0,20.5,94.0,1008.1,316.3,1.3,1.7,325.8,0.01,19.5,22.7,"06:11:44",1
"21/06/25","06:30",0.0,20.6,94.0,1008.3,307.5,1.3,1.9,327.8,0.01,19.6,22.7,"06:27:20",1
"21/06/25","06:40",0.0,20.7,93.9,1008.6,321.8,1.3,1.7,329.5,0.02,19.7,22.7,"06:33:04",1
"21/06/25","06:50",0.0,20.9,93.9,1007.8,323.0,1.3,1.7,337.3,0.03,19.9,22.6,"06:46:48",1
"21/06/25","07:00",0.0,21.2,93.7,1008.3,311.3,1.1,1.8,331.6,0.05,20.2,22.7,"06:51:36",1
"21/06/25","07:10",0.0,21.5,93.7,1008.3,270.1,0.6,1.3,259.3,0.08,20.5,22.7,"07:01:36",1
"21/06/25","07:20",0.0,22.1,93.6,1008.3,282.4,0.3,0.8,257.4,0.09,21.1,22.7,"07:13:04",1
"21/06/25","07:30",0.0,21.8,93.2,1008.1,308.7,0.8,1.2,338.0,0.07,20.7,22.6,"07:27:36",1
"21/06/25","07:40",0.0,21.8,93.0,1008.1,285.8,0.7,1.4,316.5,0.08,20.7,22.5,"07:30:16",1
"21/06/25","07:50",0.0,22.5,92.5,1008.1,256.4,0.2,0.6,232.4,0.11,21.3,22.6,"07:47:20",1
"21/06/25","08:00",0.0,23.0,92.2,1008.1,268.2,0.5,1.0,229.3,0.14,21.7,22.7,"07:51:44",1
"21/06/25","08:10",0.0,22.7,91.0,1007.8,314.6,1.0,1.9,345.3,0.15,21.2,22.7,"08:03:20",1
"21/06/25","08:20",0.0,23.2,89.8,1007.8,349.0,1.0,2.2,346.1,0.19,21.5,22.8,"08:10:40",1
"21/06/25","08:30",0.0,23.7,88.1,1007.6,295.2,0.6,1.3,346.4,0.18,21.7,22.8,"08:22:48",1
"21/06/25","08:40",0.0,24.3,85.5,1007.4,13.2,0.5,1.4,351.7,0.18,21.8,22.7,"08:31:04",1
"21/06/25","08:50",0.0,24.9,82.5,1007.1,344.5,0.6,1.8,318.4,0.31,21.8,22.8,"08:47:28",1
"21/06/25","09:00",0.0,25.8,77.3,1006.9,127.7,0.5,1.9,7.7,0.28,21.6,22.8,"08:51:20",1
"21/06/25","09:10",0.0,26.8,73.3,1006.7,31.2,0.7,1.7,34.8,0.40,21.7,22.9,"09:05:28",1
"21/06/25","09:20",0.0,27.3,69.4,1006.9,122.4,1.2,2.4,68.7,0.41,21.2,23.1,"09:10:08",1
"21/06/25","09:30",0.0,26.9,68.1,1007.1,136.4,1.0,2.5,152.1,0.34,20.6,23.2,"09:24:00",1
"21/06/25","09:40",0.0,27.3,67.0,1007.1,142.9,0.7,1.9,155.8,0.31,20.7,23.1,"09:38:32",1
"21/06/25","09:50",0.0,27.2,67.4,1007.1,156.6,0.8,3.1,232.1,0.34,20.7,23.3,"09:49:12",1
"21/06/25","10:00",0.0,28.1,67.2,1007.1,141.2,1.1,2.6,132.1,0.46,21.5,23.2,"09:55:04",1
"21/06/25","10:10",0.0,28.5,65.6,1007.6,123.8,1.0,2.6,156.7,0.46,21.5,23.2,"10:06:32",1
"21/06/25","10:20",0.0,27.5,64.3,1007.4,87.1,0.7,2.2,118.1,0.18,20.2,23.5,"10:13:28",1
"21/06/25","10:30",0.0,27.8,63.6,1007.1,85.5,0.8,2.6,114.4,0.38,20.3,23.7,"10:29:52",1
"21/06/25","10:40",0.0,27.8,63.3,1007.1,61.4,0.8,2.1,113.7,0.26,20.2,23.7,"10:30:24",1
"21/06/25","10:50",0.0,27.8,64.2,1007.1,140.4,0.7,2.0,195.1,0.26,20.5,23.5,"10:47:12",1
"21/06/25","11:00",0.0,28.3,64.9,1006.7,67.2,0.6,2.0,43.5,0.34,21.1,23.9,"10:58:16",1
"21/06/25","11:10",0.0,29.1,62.1,1007.1,151.9,1.5,2.8,158.3,0.54,21.1,23.9,"11:07:44",1
"21/06/25","11:20",0.0,29.2,59.6,1007.4,143.9,1.0,2.9,175.7,0.44,20.6,23.9,"11:13:36",1
"21/06/25","11:30",0.0,29.1,61.4,1006.7,163.6,1.7,4.4,191.1,0.47,21.0,24.0,"11:22:48",1
"21/06/25","11:40",0.0,29.3,58.8,1006.9,104.5,1.0,2.1,122.6,0.44,20.4,24.0,"11:34:00",1
"21/06/25","11:50",0.0,29.7,58.0,1006.9,74.4,0.7,2.2,126.8,0.45,20.6,24.2,"11:42:56",1
"21/06/25","12:00",0.0,29.7,55.8,1006.9,334.3,1.0,2.4,346.3,0.62,20.0,24.5,"11:57:28",1
"21/06/25","12:10",0.0,29.8,54.5,1007.1,134.4,1.1,3.7,209.0,0.46,19.7,24.6,"12:02:24",1
"21/06/25","12:20",0.0,29.9,53.3,1006.7,107.9,1.0,3.1,170.4,0.48,19.4,24.5,"12:13:36",1
"21/06/25","12:30",0.0,30.1,53.9,1006.9,129.7,1.5,3.2,116.3,0.52,19.8,24.5,"12:25:28",1
"21/06/25","12:40",0.0,30.4,53.2,1006.7,184.1,1.2,4.2,190.0,0.56,19.8,24.5,"12:38:00",1
"21/06/25","12:50",0.0,30.5,52.0,1006.4,110.4,1.3,3.7,142.0,0.45,19.6,24.5,"12:41:12",1
"21/06/25","13:00",0.0,29.7,52.0,1006.2,132.2,1.6,3.7,116.6,0.41,18.8,24.7,"12:56:56",1
"21/06/25","13:10",0.0,30.3,54.3,1006.2,117.0,1.0,2.1,157.3,0.43,20.1,24.7,"13:04:00",1
"21/06/25","13:20",0.0,29.5,52.7,1005.7,128.5,1.1,2.6,142.3,0.26,18.9,24.7,"13:15:12",1
"21/06/25","13:30",0.0,29.1,55.6,1005.2,129.9,1.0,2.8,139.1,0.13,19.4,24.7,"13:29:04",1
"21/06/25","13:40",0.0,28.8,55.5,1004.8,180.9,0.7,1.8,129.0,0.15,19.0,24.9,"13:31:04",1
"21/06/25","13:50",0.0,29.2,55.7,1004.8,267.8,0.6,2.4,245.5,0.14,19.5,24.9,"13:41:04",1
"21/06/25","14:00",0.0,29.2,55.4,1004.3,132.4,0.3,1.3,84.6,0.15,19.4,24.7,"13:59:12",1
"21/06/25","14:10",0.0,29.4,57.7,1004.8,329.5,1.2,2.9,349.0,0.27,20.2,25.1,"14:04:48",1
"21/06/25","14:20",0.0,29.3,55.9,1004.5,338.9,1.1,2.6,347.7,0.25,19.6,24.9,"14:11:44",1
"21/06/25","14:30",0.0,30.4,54.4,1004.3,355.9,1.2,2.9,334.7,0.37,20.2,25.1,"14:23:36",1
"21/06/25","14:40",0.0,29.7,54.5,1004.8,323.0,1.0,2.7,237.8,0.15,19.6,25.0,"14:37:20",1
"21/06/25","14:50",0.0,30.7,58.7,1004.5,126.4,1.0,2.1,114.6,0.39,21.7,25.0,"14:48:24",1
"21/06/25","15:00",0.0,31.1,50.1,1004.8,99.5,1.0,2.1,103.4,0.39,19.5,25.1,"14:55:20",1
"21/06/25","15:10",0.0,30.4,51.3,1004.8,44.8,0.8,2.7,3.4,0.13,19.3,25.2,"15:00:02",1
"21/06/25","15:20",0.0,29.7,54.5,1004.5,93.7,1.0,2.2,134.3,0.12,19.6,25.1,"15:19:52",1
"21/06/25","15:30",0.0,29.3,55.3,1004.3,100.8,0.8,2.8,134.8,0.11,19.5,25.2,"15:28:24",1
"21/06/25","15:40",0.0,29.3,55.1,1004.1,327.3,0.6,1.3,357.6,0.09,19.4,25.2,"15:31:12",1
"21/06/25","15:50",0.0,28.7,56.0,1003.6,191.3,1.5,3.9,254.8,0.06,19.1,25.1,"15:45:36",1
"21/06/25","16:00",0.0,28.7,58.2,1003.6,105.8,1.1,1.8,166.4,0.08,19.7,25.3,"15:50:40",1
"21/06/25","16:10",0.0,28.8,58.5,1003.6,24.2,0.7,2.6,27.8,0.07,19.9,25.3,"16:05:04",1
"21/06/25","16:20",0.0,28.5,59.9,1003.6,67.4,1.1,4.7,104.8,0.05,20.0,25.2,"16:19:52",1
"21/06/25","16:30",0.0,25.4,66.2,1003.6,141.9,3.2,6.4,113.2,0.02,18.7,25.2,"16:24:16",1
"21/06/25","16:40",0.0,24.1,70.0,1004.5,155.1,3.5,7.7,127.8,0.02,18.3,25.2,"16:34:32",1
"21/06/25","16:50",0.0,23.6,72.7,1005.0,169.1,2.7,7.5,146.2,0.01,18.5,25.1,"16:44:48",1
"21/06/25","17:00",0.0,23.5,74.1,1004.8,136.1,1.6,3.9,134.8,0.00,18.7,25.1,"16:53:36",1
"21/06/25","17:10",0.0,23.5,75.0,1005.2,24.3,1.2,4.2,15.3,0.00,18.9,25.0,"17:03:04",1
"21/06/25","17:20",0.0,23.2,77.0,1005.2,359.1,1.0,2.4,11.8,0.04,19.0,24.7,"17:11:20",1
"21/06/25","17:30",0.0,23.3,79.4,1005.0,333.6,2.0,3.4,345.9,0.08,19.6,25.1,"17:26:48",1
"21/06/25","17:40",0.0,23.3,81.0,1005.5,311.7,1.3,3.4,346.6,0.07,19.9,25.0,"17:30:40",1
"21/06/25","17:50",0.0,22.9,81.8,1006.0,333.5,2.1,4.2,345.7,0.05,19.7,24.9,"17:45:12",1
"21/06/25","18:00",0.0,22.6,82.7,1005.7,330.7,1.6,3.3,337.7,0.05,19.5,25.0,"17:52:24",1
"21/06/25","18:10",0.0,22.7,83.0,1005.7,306.3,0.7,2.0,342.5,0.05,19.7,24.7,"18:04:08",1
"21/06/25","18:20",0.0,22.6,83.0,1006.0,326.3,0.7,1.9,344.6,0.03,19.6,24.9,"18:16:32",1
"21/06/25","18:30",0.0,22.7,83.1,1006.0,328.7,1.0,1.9,341.4,0.01,19.7,24.7,"18:24:00",1
"21/06/25","18:40",0.0,22.7,83.7,1006.0,332.0,1.6,2.5,335.5,0.01,19.8,24.8,"18:33:28",1
"21/06/25","18:50",0.0,22.5,84.4,1005.7,338.0,1.2,2.2,338.1,0.00,19.8,24.8,"18:44:24",1
"21/06/25","19:00",0.0,22.2,85.3,1006.2,340.6,1.5,2.9,343.8,0.00,19.7,24.6,"18:56:32",1
"21/06/25","19:10",0.0,21.8,86.1,1006.2,333.5,1.7,2.5,345.3,0.00,19.4,24.8,"19:00:08",1
"21/06/25","19:20",0.0,21.7,86.7,1006.2,319.1,1.6,2.5,292.3,0.00,19.4,24.6,"19:19:12",1
"21/06/25","19:30",0.0,21.6,87.2,1006.4,305.3,1.3,2.6,342.0,0.00,19.4,24.6,"19:20:32",1
"21/06/25","19:40",0.0,21.5,87.5,1006.4,306.0,1.5,2.4,283.5,0.00,19.4,24.5,"19:32:40",1
"21/06/25","19:50",0.0,21.7,87.8,1006.7,331.1,1.7,2.7,332.8,0.00,19.6,24.7,"19:42:24",1
"21/06/25","20:00",0.0,21.5,88.1,1006.4,326.4,1.7,2.6,334.0,0.00,19.5,24.5,"19:54:56",1
"21/06/25","20:10",0.0,21.3,88.3,1006.9,323.7,1.7,2.7,321.7,0.00,19.3,24.4,"20:03:20",1
"21/06/25","20:20",0.0,21.3,88.6,1006.9,332.5,2.0,2.8,330.6,0.00,19.4,24.5,"20:18:48",1
"21/06/25","20:30",0.0,21.2,88.8,1006.9,326.7,1.5,2.2,304.4,0.00,19.3,24.4,"20:20:08",1
"21/06/25","20:40",0.0,21.1,89.0,1007.4,300.6,1.1,1.7,325.0,0.00,19.3,24.2,"20:30:16",1
"21/06/25","20:50",0.0,21.2,89.2,1007.4,313.4,1.5,1.9,320.6,0.00,19.4,24.2,"20:43:04",1
"21/06/25","21:00",0.0,21.2,89.3,1007.4,329.1,1.7,2.6,315.1,0.00,19.4,24.3,"20:54:24",1
"21/06/25","21:10",0.0,21.2,89.5,1007.6,333.7,1.8,3.4,340.4,0.00,19.4,24.4,"21:01:12",1
"21/06/25","21:20",0.0,21.1,89.7,1007.8,336.6,1.6,3.2,332.3,0.00,19.4,24.2,"21:10:24",1
"21/06/25","21:30",0.0,21.1,89.9,1007.6,328.3,1.5,2.0,322.2,0.00,19.4,24.0,"21:29:12",1
"21/06/25","21:40",0.0,21.0,89.9,1007.8,299.4,1.1,3.1,341.2,0.00,19.3,24.1,"21:30:48",1
"21/06/25","21:50",0.0,21.0,90.0,1007.6,294.0,1.1,1.8,315.3,0.00,19.3,24.2,"21:41:04",1
"21/06/25","22:00",0.0,20.9,90.1,1007.6,314.2,1.6,3.1,329.0,0.00,19.3,24.2,"21:57:04",1
"21/06/25","22:10",0.0,20.9,90.1,1008.1,317.9,1.1,1.8,329.4,0.00,19.3,24.0,"22:00:32",1
"21/06/25","22:20",0.0,20.8,90.3,1008.1,314.6,1.2,1.6,316.0,0.00,19.2,23.8,"22:19:52",1
"21/06/25","22:30",0.0,20.8,90.4,1007.8,325.9,1.5,2.7,336.7,0.00,19.2,23.9,"22:29:36",1
"21/06/25","22:40",0.0,20.8,90.5,1008.1,324.9,1.6,2.4,341.4,0.00,19.2,23.9,"22:33:12",1
"21/06/25","22:50",0.0,20.7,90.7,1008.3,326.6,2.0,2.8,340.3,0.00,19.2,23.9,"22:45:12",1
"21/06/25","23:00",0.0,20.7,90.8,1008.1,324.8,1.8,3.1,335.8,0.00,19.2,24.0,"22:52:32",1
"21/06/25","23:10",0.0,20.6,91.0,1008.1,326.7,1.2,1.8,323.3,0.00,19.1,23.9,"23:09:44",1
"21/06/25","23:20",0.0,20.5,91.1,1008.1,318.9,1.7,2.0,337.3,0.00,19.0,23.9,"23:15:12",1
"21/06/25","23:30",0.0,20.5,91.2,1008.3,313.0,1.5,2.0,311.1,0.00,19.1,23.6,"23:24:08",1
"21/06/25","23:40",0.0,20.5,91.3,1008.6,324.4,1.7,2.6,338.4,0.00,19.1,23.9,"23:36:56",1
"21/06/25","23:50",0.0,20.5,91.4,1008.3,323.5,1.5,1.9,330.2,0.00,19.1,23.8,"23:42:08",1
"21/06/25","24:00",0.0,20.4,91.5,1008.1,318.6,1.3,1.6,316.3,0.00,19.0,23.7,"23:52:56",1
